{"data":{"norad_id":66277,"epoch":"2026-09-20T13:33:37.940544Z","epoch_age_seconds":91050,"freshness":"FRESH","line1":"1 66277U 25247N   26263.56502246  .00013671  00000+0  41496-3 0  9991","line2":"2 66277  53.1588   1.7508 0000758  64.9732 295.1349 15.34402828 50984","mean_motion":15.34402828,"eccentricity":7.58e-5,"inclination_deg":53.1588,"raan_deg":1.7508,"arg_perigee_deg":64.9732,"mean_anomaly_deg":295.1349,"bstar":0.00041496,"rev_number":5098,"period_min":93.84758511407,"perigee_km":462.17629975496,"apogee_km":463.21336986112,"semimajor_km":6840.831834808,"source":"CELESTRAK","updated_at":"2026-09-21T09:00:35.869305Z"}}